User: anonymous   Login
Location: Unspecified
(0.0000°N, 0.0000°E)
Time: 15:14:44
(UTC+00:00)
Language:

Isis 2 - Orbit

View from above orbital plane
View from above orbital plane
View from above satellite
View from above satellite

Ground track
Ground track

The orbit data is extracted from the following two-line orbital elements,

1  5104U 71024A   18051.65543624 +.00000004 +00000-0 -36858-4 0  9993
2  5104 088.1576 081.2933 0045399 099.7643 019.2859 12.67836610169719
Epoch (UTC): 20 February 2018 15:43:49
Eccentricity: 0.0045399
inclination: 88.1576°
perigee height: 1355 km
apogee height: 1426 km
right ascension of ascending node: 81.2933°
argument of perigee: 99.7643°
revolutions per day: 12.67836610
mean anomaly at epoch: 19.2859°
orbit number at epoch: 16971

The dashed part of the orbit path shows where the satellite is in the earth's shadow,  

DLR